START_TIME,STEP,MOV.,M15,t_acc.,M20,t_acc.
1981-08-30 15:00:44.430 ,1,0,0.,24.0,0.,24.0
1981-08-30 15:01:08.430 ,0,1,0.,24.0,0.,24.0
1981-08-30 15:01:32.430 ,0,0,0.,24.0,0.,24.0
1981-08-30 15:01:56.430 ,0,1,0.,24.0,0.,24.0
1981-08-30 15:02:20.430 ,0,0,0.,24.0,0.,24.0
1981-08-30 15:02:44.430 ,1,1,0.,24.0,0.,24.0
1981-08-30 15:03:08.430 ,1,0,0.,24.0,0.,24.0
1981-08-30 15:03:32.430 ,2,1,0.,24.0,0.,24.0
1981-08-30 15:03:56.430 ,2,0,0.,24.0,0.,24.0
1981-08-30 15:04:20.430 ,3,1,0.,24.0,0.,24.0
1981-08-30 15:04:44.430 ,4,1,0.,24.0,0.,24.0
1981-08-30 15:05:08.430 ,5,1,0.,24.0,0.,24.0
1981-08-30 15:05:32.430 ,6,1,0.,24.0,0.,24.0
1981-08-30 15:05:56.430 ,7,1,0.,24.0,0.,24.0
1981-08-30 15:06:20.430 ,7,1,0.,24.0,0.,24.0
1981-08-30 15:06:44.420 ,6,1,0.,24.0,0.,24.0
1981-08-30 15:07:08.420 ,5,1,0.,24.0,0.,24.0
1981-08-30 15:07:32.420 ,4,1,0.,24.0,0.,24.0
1981-08-30 15:07:56.420 ,3,1,0.,24.0,0.,24.0
1981-08-30 15:08:20.420 ,2,1,0.,24.0,0.,24.0
1981-08-30 15:08:44.420 ,1,1,0.,24.0,0.,24.0
1981-08-30 15:09:08.420 ,0,1,0.,24.0,0.,24.0
1981-08-30 15:09:32.420 ,0,1,0.,24.0,0.,24.0
1981-08-30 15:09:56.420 ,1,1,0.,24.0,0.,24.0
1981-08-30 15:10:20.420 ,2,1,0.,24.0,0.,24.0
1981-08-30 15:10:44.420 ,3,1,0.,24.0,0.,24.0
1981-08-30 15:11:08.420 ,3,0,0.,24.0,0.,24.0
1981-08-30 15:11:32.420 ,4,1,0.,24.0,0.,24.0
1981-08-30 15:11:56.420 ,4,0,0.,24.0,0.,24.0
1981-08-30 15:12:20.420 ,5,1,0.,24.0,0.,24.0
1981-08-30 15:12:44.420 ,5,0,0.,24.0,0.,24.0
1981-08-30 15:13:08.420 ,6,1,0.,24.0,0.,24.0
1981-08-30 15:13:32.420 ,6,0,0.,24.0,0.,24.0
1981-08-30 15:13:56.420 ,7,1,0.,24.0,0.,24.0
1981-08-30 15:14:20.420 ,7,0,0.,24.0,0.,24.0
1981-08-30 15:14:44.420 ,7,1,0.,24.0,0.,24.0
1981-08-30 15:15:08.420 ,7,0,0.,24.0,0.,24.0
1981-08-30 15:15:32.420 ,6,1,0.,24.0,0.,24.0
1981-08-30 15:15:56.420 ,6,0,0.,24.0,0.,24.0
1981-08-30 15:16:20.420 ,5,1,0.,24.0,0.,24.0
1981-08-30 15:16:44.420 ,5,0,0.,24.0,0.,24.0
1981-08-30 15:17:08.420 ,4,1,0.,24.0,0.,24.0
1981-08-30 15:17:32.420 ,4,0,0.,24.0,0.,24.0
1981-08-30 15:17:56.420 ,3,1,0.,24.0,0.,24.0
1981-08-30 15:18:20.420 ,3,0,0.,24.0,0.,24.0
1981-08-30 15:18:44.420 ,2,1,0.,24.0,0.,24.0
1981-08-30 15:19:08.420 ,2,0,0.,24.0,0.,24.0
1981-08-30 15:19:32.420 ,1,1,0.,24.0,0.,24.0
1981-08-30 15:19:56.420 ,1,0,0.,24.0,0.,24.0
1981-08-30 15:20:20.420 ,0,1,0.,24.0,0.,24.0
1981-08-30 15:20:44.420 ,0,0,0.,24.0,0.,24.0
1981-08-30 15:21:08.420 ,0,1,0.,24.0,0.,24.0
1981-08-30 15:21:32.420 ,0,0,0.,24.0,0.,24.0
1981-08-30 15:21:56.420 ,1,1,0.,24.0,0.,24.0
1981-08-30 15:22:20.420 ,1,0,0.,24.0,0.,24.0
1981-08-30 15:22:44.420 ,2,1,0.,24.0,0.,24.0
1981-08-30 15:23:08.420 ,2,0,0.,24.0,0.,24.0
1981-08-30 15:23:32.420 ,3,1,0.,24.0,0.,24.0
1981-08-30 15:23:56.420 ,4,1,0.,24.0,0.,24.0
1981-08-30 15:24:20.420 ,5,1,0.,24.0,0.,24.0
1981-08-30 15:24:44.420 ,6,1,0.,24.0,0.,24.0
1981-08-30 15:25:08.420 ,7,1,0.,24.0,0.,24.0
1981-08-30 15:25:32.420 ,7,1,0.,24.0,0.,24.0
1981-08-30 15:25:56.420 ,6,1,0.,24.0,0.,24.0
1981-08-30 15:26:20.420 ,5,1,0.,24.0,0.,24.0
1981-08-30 15:26:44.420 ,4,1,0.,24.0,0.,24.0
1981-08-30 15:27:08.420 ,3,1,0.,24.0,0.,24.0
1981-08-30 15:27:32.420 ,2,1,0.,24.0,0.,24.0
1981-08-30 15:27:56.420 ,1,1,0.,24.0,0.,24.0
1981-08-30 15:28:20.420 ,0,1,0.,24.0,0.,24.0
1981-08-30 15:28:44.420 ,0,1,0.,24.0,0.,24.0
1981-08-30 15:29:08.420 ,1,1,0.,24.0,0.,24.0
1981-08-30 15:29:32.420 ,2,1,0.,24.0,0.,24.0
1981-08-30 15:29:56.420 ,3,1,0.,24.0,0.,24.0
1981-08-30 15:30:20.420 ,3,0,0.,24.0,0.,24.0
1981-08-30 15:30:44.420 ,4,1,0.,24.0,0.,24.0
1981-08-30 15:31:08.420 ,4,0,0.,24.0,0.,24.0
1981-08-30 15:31:32.420 ,5,1,0.,24.0,0.,24.0
1981-08-30 15:31:56.420 ,5,0,0.,24.0,0.,24.0
1981-08-30 15:32:20.420 ,6,1,0.,24.0,0.,24.0
1981-08-30 15:32:44.420 ,6,0,0.,24.0,0.,24.0
1981-08-30 15:33:08.420 ,7,1,0.,24.0,0.,24.0
1981-08-30 15:33:32.420 ,7,0,0.,24.0,0.,24.0
1981-08-30 15:33:56.420 ,7,1,0.,24.0,0.,24.0
1981-08-30 15:34:20.420 ,7,0,0.,24.0,0.,24.0
1981-08-30 15:34:44.420 ,6,1,0.,24.0,0.,24.0
1981-08-30 15:35:08.420 ,6,0,0.,24.0,0.,24.0
1981-08-30 15:35:32.420 ,5,1,0.,24.0,0.,24.0
1981-08-30 15:35:56.420 ,5,0,0.,24.0,0.,24.0
1981-08-30 15:36:20.420 ,4,1,0.,24.0,0.,24.0
1981-08-30 15:36:44.420 ,4,0,0.,24.0,0.,24.0
1981-08-30 15:37:08.420 ,3,1,0.,24.0,0.,24.0
1981-08-30 15:37:32.420 ,3,0,0.,24.0,0.,24.0
1981-08-30 15:37:56.420 ,2,1,0.,24.0,0.,24.0
1981-08-30 15:38:20.420 ,2,0,0.,24.0,0.,24.0
1981-08-30 15:38:44.420 ,1,1,0.,24.0,0.,24.0
1981-08-30 15:39:08.420 ,1,0,0.,24.0,0.,24.0
1981-08-30 15:39:32.420 ,0,1,0.,24.0,0.,24.0
1981-08-30 15:39:56.420 ,0,0,0.,24.0,0.,24.0
1981-08-30 15:40:20.420 ,0,1,0.,24.0,0.,24.0
1981-08-30 15:40:44.420 ,0,0,0.,24.0,0.,24.0
1981-08-30 15:41:08.420 ,1,1,0.,24.0,0.,24.0
1981-08-30 15:41:32.420 ,1,0,0.,24.0,0.,24.0
1981-08-30 15:41:56.420 ,2,1,0.,24.0,0.,24.0
1981-08-30 15:42:20.420 ,2,0,0.,24.0,0.,24.0
1981-08-30 15:42:44.420 ,3,1,0.,24.0,0.,24.0
1981-08-30 15:43:08.420 ,4,1,0.,24.0,0.,24.0
1981-08-30 15:43:32.420 ,5,1,0.,24.0,0.,24.0
1981-08-30 15:43:56.420 ,6,1,0.,24.0,0.,24.0
1981-08-30 15:44:20.420 ,7,1,0.,24.0,0.,24.0
1981-08-30 15:44:44.420 ,7,1,0.,24.0,0.,24.0
1981-08-30 15:45:08.420 ,6,1,0.,24.0,0.,24.0
1981-08-30 15:45:32.420 ,5,1,0.,24.0,0.,24.0
1981-08-30 15:45:56.420 ,4,1,0.,24.0,0.,24.0
1981-08-30 15:46:20.420 ,3,1,0.,24.0,0.,24.0
1981-08-30 15:46:44.420 ,2,1,0.,24.0,0.,24.0
1981-08-30 15:47:08.420 ,1,1,0.,24.0,0.,24.0
1981-08-30 15:47:32.420 ,0,1,0.,24.0,0.,24.0
1981-08-30 15:47:56.420 ,0,1,0.,24.0,0.,24.0
1981-08-30 15:48:20.420 ,1,1,0.,24.0,0.,24.0
1981-08-30 15:48:44.420 ,2,1,0.,24.0,0.,24.0
1981-08-30 15:49:08.420 ,3,1,0.,24.0,0.,24.0
1981-08-30 15:49:32.420 ,3,0,0.,24.0,0.,24.0
1981-08-30 15:49:56.420 ,4,1,0.,24.0,0.,24.0
1981-08-30 15:50:20.420 ,4,0,0.,24.0,0.,24.0
1981-08-30 15:50:44.420 ,5,1,0.,24.0,0.,24.0
1981-08-30 15:51:08.420 ,5,0,0.,24.0,0.,24.0
1981-08-30 15:51:32.420 ,6,1,0.,24.0,0.,24.0
1981-08-30 15:51:56.420 ,6,0,0.,24.0,0.,24.0
1981-08-30 15:52:20.420 ,7,1,0.,24.0,0.,24.0
1981-08-30 15:52:44.420 ,7,0,0.,24.0,0.,24.0
1981-08-30 15:53:08.420 ,7,1,0.,24.0,0.,24.0
1981-08-30 15:53:32.420 ,7,0,0.,24.0,0.,24.0
1981-08-30 15:53:56.420 ,6,1,0.,24.0,0.,24.0
1981-08-30 15:54:20.420 ,6,0,0.,24.0,0.,24.0
1981-08-30 15:54:44.420 ,5,1,0.,24.0,0.,24.0
1981-08-30 15:55:08.420 ,5,0,0.,24.0,0.,24.0
1981-08-30 15:55:32.420 ,4,1,0.,24.0,0.,24.0
1981-08-30 15:55:56.420 ,0,0,0.,24.0,0.,24.0
1981-08-30 15:56:22.820 ,3,1,0.,24.0,0.,24.0
1981-08-30 15:56:44.420 ,3,0,0.,24.0,0.,24.0
1981-08-30 15:57:08.420 ,2,1,0.,24.0,0.,24.0
1981-08-30 15:57:32.420 ,2,0,0.,24.0,0.,24.0
1981-08-30 15:57:56.420 ,1,1,0.,24.0,0.,24.0
1981-08-30 15:58:20.420 ,1,0,0.,24.0,0.,24.0
1981-08-30 15:58:44.420 ,0,1,0.,24.0,0.,24.0
1981-08-30 15:59:08.420 ,0,0,0.,24.0,0.,24.0
1981-08-30 15:59:32.420 ,0,1,0.,24.0,0.,24.0
1981-08-30 15:59:56.420 ,0,0,0.,24.0,0.,24.0
1981-08-30 16:00:20.420 ,1,1,0.,24.0,0.,24.0
1981-08-30 16:00:44.420 ,1,0,0.,24.0,0.,24.0
1981-08-30 16:01:08.420 ,2,1,0.,24.0,0.,24.0
1981-08-30 16:01:32.420 ,2,0,0.,24.0,0.,24.0
1981-08-30 16:01:56.420 ,3,1,0.,24.0,0.,24.0
1981-08-30 16:02:20.420 ,4,1,0.,24.0,0.,24.0
1981-08-30 16:02:44.420 ,5,1,0.,24.0,0.,24.0
1981-08-30 16:03:08.420 ,6,1,0.,24.0,0.,24.0
1981-08-30 16:03:32.420 ,7,1,0.,24.0,0.,24.0
1981-08-30 16:03:56.420 ,7,1,0.,24.0,0.,24.0
1981-08-30 16:04:20.420 ,6,1,0.,24.0,0.,24.0
1981-08-30 16:04:44.420 ,5,1,0.,24.0,0.,24.0
1981-08-30 16:05:08.420 ,4,1,0.,24.0,0.,24.0
1981-08-30 16:05:32.420 ,3,1,0.,24.0,0.,24.0
1981-08-30 16:05:56.420 ,2,1,0.,24.0,0.,24.0
1981-08-30 16:06:20.420 ,1,1,0.,24.0,0.,24.0
1981-08-30 16:06:44.420 ,0,1,0.,24.0,0.,24.0
1981-08-30 16:07:08.420 ,0,1,0.,24.0,0.,24.0
1981-08-30 16:07:32.420 ,1,1,0.,24.0,0.,24.0
1981-08-30 16:07:56.420 ,2,1,0.,24.0,0.,24.0
1981-08-30 16:08:20.420 ,3,1,0.,24.0,0.,24.0
1981-08-30 16:08:44.420 ,3,0,0.,24.0,0.,24.0
1981-08-30 16:09:08.420 ,4,1,0.,24.0,0.,24.0
1981-08-30 16:09:32.420 ,4,0,0.,24.0,0.,24.0
1981-08-30 16:09:56.420 ,5,1,0.,24.0,0.,24.0
1981-08-30 16:10:20.420 ,5,0,0.,24.0,0.,24.0
1981-08-30 16:10:44.420 ,6,1,0.,24.0,0.,24.0
1981-08-30 16:11:08.420 ,6,0,0.,24.0,0.,24.0
1981-08-30 16:11:32.420 ,7,1,0.,24.0,0.,24.0
1981-08-30 16:11:56.420 ,7,0,0.,24.0,0.,24.0
1981-08-30 16:12:20.420 ,7,1,0.,24.0,0.,24.0
1981-08-30 16:12:44.420 ,7,0,0.,24.0,0.,24.0
1981-08-30 16:13:08.420 ,6,1,0.,24.0,0.,24.0
1981-08-30 16:13:32.420 ,6,0,0.,24.0,0.,24.0
1981-08-30 16:13:56.420 ,5,1,0.,24.0,0.,24.0
1981-08-30 16:14:20.420 ,5,0,0.,24.0,0.,24.0
1981-08-30 16:14:44.420 ,4,1,0.,24.0,0.,24.0
1981-08-30 16:15:08.420 ,4,0,0.,24.0,0.,24.0
1981-08-30 16:15:32.420 ,3,1,0.,24.0,0.,24.0
1981-08-30 16:15:56.420 ,3,0,0.,24.0,0.,24.0
1981-08-30 16:16:20.420 ,2,1,0.,24.0,0.,24.0
1981-08-30 16:16:44.420 ,2,0,0.,24.0,0.,24.0
1981-08-30 16:17:08.420 ,1,1,0.,24.0,0.,24.0
1981-08-30 16:17:32.420 ,1,0,0.,24.0,0.,24.0
1981-08-30 16:17:56.420 ,0,1,0.,24.0,0.,24.0
1981-08-30 16:18:20.420 ,0,0,0.,24.0,0.,24.0
1981-08-30 16:18:44.420 ,0,1,0.,24.0,0.,24.0
1981-08-30 16:19:08.420 ,0,0,0.,24.0,0.,24.0
1981-08-30 16:19:32.420 ,1,1,0.,24.0,0.,24.0
1981-08-30 16:19:56.420 ,1,0,0.,24.0,0.,24.0
1981-08-30 16:20:20.420 ,2,1,0.,24.0,0.,24.0
1981-08-30 16:20:44.420 ,2,0,0.,24.0,0.,24.0
1981-08-30 16:21:08.420 ,3,1,0.,24.0,0.,24.0
1981-08-30 16:21:32.420 ,4,1,0.,24.0,0.,24.0
1981-08-30 16:21:56.420 ,5,1,0.,24.0,0.,24.0
1981-08-30 16:22:20.420 ,6,1,0.,24.0,0.,24.0
1981-08-30 16:22:44.420 ,7,1,0.,24.0,0.,24.0
1981-08-30 16:23:08.420 ,7,1,0.,24.0,0.,24.0
1981-08-30 16:23:32.420 ,6,1,0.,24.0,0.,24.0
1981-08-30 16:23:56.420 ,5,1,0.,24.0,0.,24.0
1981-08-30 16:24:20.420 ,4,1,0.,24.0,0.,24.0
1981-08-30 16:24:44.420 ,3,1,0.,24.0,0.,24.0
1981-08-30 16:25:08.420 ,2,1,0.,24.0,0.,24.0
1981-08-30 16:25:32.420 ,1,1,0.,24.0,0.,24.0
1981-08-30 16:25:56.420 ,0,1,0.,24.0,0.,24.0
1981-08-30 16:26:20.420 ,0,1,0.,24.0,0.,24.0
1981-08-30 16:26:44.420 ,1,1,0.,24.0,0.,24.0
1981-08-30 16:27:08.420 ,2,1,0.,24.0,0.,24.0
1981-08-30 16:27:32.420 ,3,1,0.,24.0,0.,24.0
1981-08-30 16:27:56.420 ,3,0,0.,24.0,0.,24.0
1981-08-30 16:28:20.420 ,4,1,0.,24.0,0.,24.0
1981-08-30 16:28:44.420 ,4,0,0.,24.0,0.,24.0
1981-08-30 16:29:08.420 ,5,1,0.,24.0,0.,24.0
1981-08-30 16:29:32.420 ,5,0,0.,24.0,0.,24.0
1981-08-30 16:29:56.420 ,6,1,0.,24.0,0.,24.0
1981-08-30 16:30:20.420 ,6,0,0.,24.0,0.,24.0
1981-08-30 16:30:44.420 ,7,1,0.,24.0,0.,24.0
1981-08-30 16:31:08.420 ,7,0,0.,24.0,0.,24.0
1981-08-30 16:31:32.420 ,7,1,0.,24.0,0.,24.0
1981-08-30 16:31:56.420 ,7,0,0.,24.0,0.,24.0
1981-08-30 16:32:20.420 ,6,1,0.,24.0,0.,24.0
1981-08-30 16:32:44.420 ,6,0,0.,24.0,0.,24.0
1981-08-30 16:33:08.420 ,5,1,0.,24.0,0.,24.0
1981-08-30 16:33:32.420 ,5,0,0.,24.0,0.,24.0
1981-08-30 16:33:56.420 ,4,1,0.,24.0,0.,24.0
1981-08-30 16:34:20.420 ,4,0,0.,24.0,0.,24.0
1981-08-30 16:34:44.420 ,3,1,0.,24.0,0.,24.0
1981-08-30 16:35:08.420 ,3,0,0.,24.0,0.,24.0
1981-08-30 16:35:32.420 ,2,1,0.,24.0,0.,24.0
1981-08-30 16:35:56.420 ,2,0,0.,24.0,0.,24.0
1981-08-30 16:36:20.420 ,1,1,0.,24.0,0.,24.0
1981-08-30 16:36:44.420 ,1,0,0.,24.0,0.,24.0
1981-08-30 16:37:08.420 ,0,1,0.,24.0,0.,24.0
1981-08-30 16:37:32.420 ,0,0,0.,24.0,0.,24.0
1981-08-30 16:37:56.420 ,0,1,0.,24.0,0.,24.0
1981-08-30 16:38:20.420 ,0,0,0.,24.0,0.,24.0
1981-08-30 16:38:44.420 ,1,1,0.,24.0,0.,24.0
1981-08-30 16:39:08.420 ,1,0,0.,24.0,0.,24.0
1981-08-30 16:39:32.420 ,2,1,0.,24.0,0.,24.0
1981-08-30 16:39:56.420 ,2,0,0.,24.0,0.,24.0
1981-08-30 16:40:20.420 ,3,1,0.,24.0,0.,24.0
1981-08-30 16:40:44.420 ,4,1,0.,24.0,0.,24.0
1981-08-30 16:41:08.420 ,5,1,0.,24.0,0.,24.0
1981-08-30 16:41:32.420 ,6,1,0.,24.0,0.,24.0
1981-08-30 16:41:56.420 ,7,1,0.,24.0,0.,24.0
1981-08-30 16:42:20.420 ,0,0,0.,24.0,0.,24.0
1981-08-30 16:42:44.420 ,6,1,0.,24.0,0.,24.0
1981-08-30 16:43:08.420 ,5,1,0.,24.0,0.,24.0
1981-08-30 16:43:32.420 ,4,1,0.,24.0,0.,24.0
1981-08-30 16:43:56.420 ,3,1,0.,24.0,0.,24.0
1981-08-30 16:44:20.420 ,2,1,0.,24.0,0.,24.0
1981-08-30 16:44:44.420 ,1,1,1.,24.0,0.,24.0
1981-08-30 16:45:08.420 ,0,1,0.,24.0,0.,24.0
1981-08-30 16:45:32.420 ,0,1,0.,24.0,0.,24.0
1981-08-30 16:45:56.420 ,1,1,0.,24.0,0.,24.0
1981-08-30 16:46:20.420 ,2,1,0.,24.0,0.,24.0
1981-08-30 16:46:44.420 ,3,1,0.,24.0,0.,24.0
1981-08-30 16:47:08.420 ,3,0,0.,24.0,0.,24.0
1981-08-30 16:47:32.420 ,4,1,0.,24.0,0.,24.0
1981-08-30 16:47:56.420 ,4,0,0.,24.0,0.,24.0
1981-08-30 16:48:20.420 ,0,0,,0,,0
1981-08-30 16:48:44.420 ,0,0,,0,,0
1981-08-30 16:51:34.820 ,0,0,0.,24.0,0.,24.0
1981-08-30 16:51:56.420 ,0,0,0.,24.0,0.,24.0
1981-08-30 16:52:20.420 ,5,1,0.,24.0,0.,24.0
1981-08-30 16:52:44.420 ,5,0,0.,24.0,0.,24.0
1981-08-30 16:53:08.420 ,4,1,0.,24.0,0.,24.0
1981-08-30 16:53:32.420 ,4,0,0.,24.0,0.,24.0
1981-08-30 16:53:56.420 ,3,1,0.,24.0,0.,24.0
1981-08-30 16:54:20.420 ,3,0,0.,24.0,0.,24.0
1981-08-30 16:54:44.420 ,2,1,0.,24.0,0.,24.0
1981-08-30 16:55:08.420 ,2,0,0.,24.0,0.,24.0
1981-08-30 16:55:32.420 ,0,0,,0,,0
1981-08-30 16:55:56.420 ,0,0,,0,,0
1981-08-30 16:55:56.420 ,1,0,0.,24.0,0.,24.0
1981-08-30 16:56:20.420 ,0,1,0.,24.0,0.,24.0
1981-08-30 16:56:44.420 ,0,0,0.,24.0,0.,24.0
1981-08-30 16:57:08.420 ,0,1,0.,24.0,0.,24.0
1981-08-30 16:57:32.420 ,0,0,0.,24.0,0.,24.0
1981-08-30 16:57:56.420 ,1,1,0.,24.0,0.,24.0
1981-08-30 16:58:20.420 ,1,0,0.,24.0,0.,24.0
1981-08-30 16:58:44.420 ,2,1,0.,24.0,0.,24.0
1981-08-30 16:59:08.420 ,2,0,0.,24.0,0.,24.0
1981-08-30 16:59:32.420 ,3,1,0.,24.0,0.,24.0
1981-08-30 16:59:56.420 ,4,1,0.,24.0,0.,24.0
1981-08-30 17:00:20.420 ,5,1,0.,24.0,0.,24.0
1981-08-30 17:00:44.420 ,6,1,0.,24.0,0.,24.0
1981-08-30 17:01:08.420 ,7,1,0.,24.0,0.,24.0
1981-08-30 17:01:32.420 ,7,1,0.,24.0,0.,24.0
1981-08-30 17:01:56.420 ,6,1,0.,24.0,0.,24.0
1981-08-30 17:02:20.420 ,5,1,0.,24.0,0.,24.0
1981-08-30 17:02:44.420 ,4,1,0.,24.0,0.,24.0
1981-08-30 17:03:08.420 ,3,1,0.,24.0,0.,24.0
1981-08-30 17:03:32.420 ,2,1,0.,24.0,0.,24.0
1981-08-30 17:03:56.420 ,0,0,0.,24.0,0.,24.0
1981-08-30 17:04:33.620 ,0,0,0.,24.0,0.,24.0
1981-08-30 17:04:44.420 ,0,1,0.,24.0,0.,24.0
1981-08-30 17:05:08.420 ,1,1,0.,24.0,0.,24.0
1981-08-30 17:05:32.420 ,2,1,0.,24.0,0.,24.0
1981-08-30 17:05:56.420 ,3,1,0.,24.0,0.,24.0
1981-08-30 17:06:20.420 ,3,0,0.,24.0,0.,24.0
1981-08-30 17:06:44.420 ,4,1,0.,24.0,0.,24.0
1981-08-30 17:07:08.420 ,4,0,0.,24.0,0.,24.0
1981-08-30 17:07:32.420 ,5,1,0.,24.0,0.,24.0
1981-08-30 17:07:56.420 ,5,0,0.,24.0,0.,24.0
1981-08-30 17:08:20.420 ,6,1,0.,24.0,0.,24.0
1981-08-30 17:08:44.420 ,6,0,0.,24.0,0.,24.0
1981-08-30 17:09:08.420 ,7,1,0.,24.0,0.,24.0
1981-08-30 17:09:32.420 ,7,0,0.,24.0,0.,24.0
1981-08-30 17:09:56.420 ,7,1,0.,24.0,0.,24.0
1981-08-30 17:10:20.420 ,7,0,0.,24.0,0.,24.0
1981-08-30 17:10:44.420 ,6,1,0.,24.0,0.,24.0
1981-08-30 17:11:08.420 ,6,0,0.,24.0,0.,24.0
1981-08-30 17:11:32.420 ,5,1,0.,24.0,0.,24.0
1981-08-30 17:11:56.420 ,5,0,0.,24.0,0.,24.0
1981-08-30 17:12:20.420 ,4,1,0.,24.0,0.,24.0
1981-08-30 17:12:44.420 ,4,0,0.,24.0,0.,24.0
1981-08-30 17:13:08.420 ,3,1,0.,24.0,0.,24.0
1981-08-30 17:13:32.420 ,3,0,0.,24.0,0.,24.0
1981-08-30 17:13:56.420 ,2,1,0.,24.0,0.,24.0
1981-08-30 17:14:20.420 ,2,0,0.,24.0,0.,24.0
1981-08-30 17:14:44.420 ,1,1,0.,24.0,0.,24.0
1981-08-30 17:15:08.420 ,1,0,0.,24.0,0.,24.0
1981-08-30 17:15:32.420 ,0,1,0.,24.0,0.,24.0
1981-08-30 17:15:56.420 ,0,0,0.,24.0,0.,24.0
1981-08-30 17:16:20.420 ,0,1,0.,24.0,0.,24.0
1981-08-30 17:16:44.420 ,0,0,0.,24.0,0.,24.0
1981-08-30 17:17:08.420 ,1,1,0.,24.0,0.,24.0
1981-08-30 17:17:32.420 ,1,0,0.,24.0,0.,24.0
1981-08-30 17:17:56.420 ,2,1,0.,24.0,0.,24.0
1981-08-30 17:18:20.420 ,2,0,0.,24.0,0.,24.0
1981-08-30 17:18:44.420 ,3,1,0.,24.0,0.,24.0
1981-08-30 17:19:08.420 ,4,1,0.,24.0,0.,24.0
1981-08-30 17:19:32.420 ,5,1,0.,24.0,0.,24.0
1981-08-30 17:19:56.420 ,6,1,0.,24.0,0.,24.0
1981-08-30 17:20:20.420 ,7,1,0.,24.0,0.,24.0
1981-08-30 17:20:44.420 ,7,1,0.,24.0,0.,24.0
1981-08-30 17:21:08.420 ,6,1,0.,24.0,0.,24.0
1981-08-30 17:21:32.420 ,5,1,0.,24.0,0.,24.0
1981-08-30 17:21:56.420 ,4,1,0.,24.0,0.,24.0
1981-08-30 17:22:20.420 ,3,1,0.,24.0,0.,24.0
1981-08-30 17:22:44.420 ,2,1,0.,24.0,0.,24.0
1981-08-30 17:23:08.420 ,1,1,0.,24.0,0.,24.0
1981-08-30 17:23:32.420 ,0,1,0.,24.0,0.,24.0
1981-08-30 17:23:56.420 ,0,1,0.,24.0,0.,24.0
1981-08-30 17:24:20.420 ,1,1,0.,24.0,0.,24.0
1981-08-30 17:24:44.420 ,2,1,0.,24.0,0.,24.0
1981-08-30 17:25:08.420 ,3,1,0.,24.0,0.,24.0
1981-08-30 17:25:32.420 ,3,0,0.,24.0,0.,24.0
1981-08-30 17:25:56.420 ,4,1,0.,24.0,0.,24.0
1981-08-30 17:26:20.420 ,4,0,0.,24.0,0.,24.0
1981-08-30 17:26:44.420 ,5,1,0.,24.0,0.,24.0
1981-08-30 17:27:08.420 ,5,0,0.,24.0,0.,24.0
1981-08-30 17:27:32.420 ,6,1,0.,24.0,0.,24.0
1981-08-30 17:27:56.420 ,6,0,0.,24.0,0.,24.0
1981-08-30 17:28:20.420 ,7,1,0.,24.0,0.,24.0
1981-08-30 17:28:44.420 ,7,0,0.,24.0,0.,24.0
1981-08-30 17:29:08.420 ,7,1,0.,24.0,0.,24.0
1981-08-30 17:29:32.420 ,7,0,0.,24.0,0.,24.0
1981-08-30 17:29:56.420 ,6,1,0.,24.0,0.,24.0
1981-08-30 17:30:20.420 ,6,0,0.,24.0,0.,24.0
1981-08-30 17:30:44.420 ,5,1,0.,24.0,0.,24.0
1981-08-30 17:31:08.420 ,5,0,0.,24.0,0.,24.0
1981-08-30 17:31:32.420 ,4,1,0.,24.0,0.,24.0
1981-08-30 17:31:56.420 ,4,0,0.,24.0,0.,24.0
1981-08-30 17:32:20.420 ,3,1,0.,24.0,0.,24.0
1981-08-30 17:32:44.420 ,3,0,0.,24.0,0.,24.0
1981-08-30 17:33:08.420 ,2,1,0.,24.0,0.,24.0
1981-08-30 17:33:32.420 ,2,0,0.,24.0,0.,24.0
1981-08-30 17:33:56.420 ,1,1,0.,24.0,0.,24.0
1981-08-30 17:34:20.420 ,1,0,0.,24.0,0.,24.0
1981-08-30 17:34:44.420 ,0,1,0.,24.0,0.,24.0
1981-08-30 17:35:08.420 ,0,0,0.,24.0,0.,24.0
1981-08-30 17:35:32.420 ,0,1,0.,24.0,0.,24.0
1981-08-30 17:35:56.420 ,0,0,0.,24.0,0.,24.0
1981-08-30 17:36:20.420 ,1,1,0.,24.0,0.,24.0
1981-08-30 17:36:44.420 ,1,0,0.,24.0,0.,24.0
1981-08-30 17:37:08.410 ,2,1,0.,24.0,0.,24.0
1981-08-30 17:37:32.410 ,2,0,0.,24.0,0.,24.0
1981-08-30 17:37:56.410 ,3,1,0.,24.0,0.,24.0
1981-08-30 17:38:20.410 ,4,1,0.,24.0,0.,24.0
1981-08-30 17:38:44.410 ,5,1,0.,24.0,0.,24.0
1981-08-30 17:39:08.410 ,6,1,0.,24.0,0.,24.0
1981-08-30 17:39:32.410 ,7,1,0.,24.0,0.,24.0
1981-08-30 17:39:56.410 ,7,1,0.,24.0,0.,24.0
1981-08-30 17:40:20.410 ,6,1,0.,24.0,0.,24.0
1981-08-30 17:40:44.410 ,5,1,0.,24.0,0.,24.0
1981-08-30 17:41:08.410 ,4,1,0.,24.0,0.,24.0
1981-08-30 17:41:32.410 ,3,1,0.,24.0,0.,24.0
1981-08-30 17:41:56.410 ,2,1,0.,24.0,0.,24.0
1981-08-30 17:42:20.410 ,1,1,0.,24.0,0.,24.0
1981-08-30 17:42:44.410 ,0,1,0.,24.0,0.,24.0
1981-08-30 17:43:08.410 ,0,1,0.,24.0,0.,24.0
1981-08-30 17:44:20.410 ,0,0,0.,24.0,0.,24.0
1981-08-30 17:44:44.410 ,0,0,0.,24.0,0.,24.0
1981-08-30 17:45:08.410 ,4,1,0.,24.0,0.,24.0
1981-08-30 17:45:32.410 ,4,0,0.,24.0,0.,24.0
1981-08-30 17:45:56.410 ,5,1,0.,24.0,0.,24.0
1981-08-30 17:46:20.410 ,5,0,0.,24.0,0.,24.0
1981-08-30 17:46:44.410 ,6,1,0.,24.0,0.,24.0
1981-08-30 17:47:08.410 ,6,0,0.,24.0,0.,24.0
1981-08-30 17:47:32.410 ,7,1,0.,24.0,0.,24.0
1981-08-30 17:47:56.410 ,7,0,0.,24.0,0.,24.0
1981-08-30 17:48:20.410 ,7,1,0.,24.0,0.,24.0
1981-08-30 17:48:44.410 ,7,0,0.,24.0,0.,24.0
1981-08-30 17:49:08.410 ,6,1,0.,24.0,0.,24.0
1981-08-30 17:49:32.410 ,6,0,0.,24.0,0.,24.0
1981-08-30 17:49:56.410 ,5,1,0.,24.0,0.,24.0
1981-08-30 17:50:20.410 ,5,0,0.,24.0,0.,24.0
1981-08-30 17:50:44.410 ,4,1,0.,24.0,0.,24.0
1981-08-30 17:51:08.410 ,4,0,0.,24.0,0.,24.0
1981-08-30 17:51:32.410 ,3,1,0.,24.0,0.,24.0
1981-08-30 17:51:56.410 ,3,0,0.,24.0,0.,24.0
1981-08-30 17:52:20.410 ,2,1,0.,24.0,0.,24.0
1981-08-30 17:52:44.410 ,2,0,0.,24.0,0.,24.0
1981-08-30 17:53:08.410 ,1,1,0.,24.0,0.,24.0
1981-08-30 17:53:32.410 ,1,0,0.,24.0,0.,24.0
1981-08-30 17:53:56.410 ,0,1,0.,24.0,0.,24.0
1981-08-30 17:54:20.410 ,0,0,0.,24.0,0.,24.0
1981-08-30 17:54:44.410 ,0,1,0.,24.0,0.,24.0
1981-08-30 17:55:08.410 ,0,0,0.,24.0,0.,24.0
1981-08-30 17:55:32.410 ,1,1,0.,24.0,0.,24.0
1981-08-30 17:55:56.410 ,1,0,0.,24.0,0.,24.0
1981-08-30 17:56:20.410 ,2,1,0.,24.0,0.,24.0
1981-08-30 17:56:44.410 ,2,0,0.,24.0,0.,24.0
1981-08-30 17:57:08.410 ,3,1,0.,24.0,0.,24.0
1981-08-30 17:57:32.410 ,4,1,0.,24.0,0.,24.0
1981-08-30 17:57:56.410 ,5,1,0.,24.0,0.,24.0
1981-08-30 17:58:20.410 ,6,1,0.,24.0,0.,24.0
1981-08-30 17:58:44.410 ,7,1,0.,24.0,0.,24.0
1981-08-30 17:59:08.410 ,7,1,0.,24.0,0.,24.0
1981-08-30 17:59:32.410 ,6,1,0.,24.0,0.,24.0
1981-08-30 17:59:56.410 ,5,1,0.,24.0,0.,24.0
1981-08-30 18:00:20.410 ,4,1,0.,24.0,0.,24.0
